Regional Weather Roundup
Issued by NWS

Home | Current Version | Previous Version | Text Only | Print | Product List | Glossary Off
Versions: 1 2 3 4 5 6 7 8 9 10 11 12 13 14 15 16 17 18 19 20 21 22 23 24 25 26 27 28 29 30 31 32 33 34 35 36 37 38 39 40 41 42 43 44 45 46 47 48 49 50

713
ASUS43 KMPX 171910
RWRMN
WEATHER ROUNDUP FOR MINNESOTA
NATIONAL WEATHER SERVICE TWIN CITIES/CHANHASSEN MN
200 PM CDT THU AUG 17 2017


NOTE: "FAIR" INDICATES FEW OR NO CLOUDS BELOW 12,000 FEET WITH NO
SIGNIFICANT WEATHER AND/OR OBSTRUCTIONS TO VISIBILITY. N/A MEANS
CURRENT SKY AND/OR WEATHER CONDITIONS ARE NOT AVAILABLE.

MNZ060>063-068>070-172000-
   Twin Cities Metro

CITY           SKY/WX    TMP DP  RH WIND       PRES   REMARKS
TWIN CITIES    CLOUDY    70  60  70 NW17      29.70S
ST PAUL        CLOUDY    69  62  78 NW23G29   29.70R
CRYSTAL        CLOUDY    70  58  65 N15G21    29.70R
BLAINE         CLOUDY    70  63  78 NW13G23   29.70R
LAKEVILLE      CLOUDY    70  63  78 NW16G24   29.71S
EDEN PRAIRIE   PTSUNNY   73  63  70 NW17G25   29.71R
SOUTH ST PAUL  CLOUDY    68  62  81 NW17G24   29.69S
LAKE ELMO      CLOUDY    68  63  83 NW15      29.70R
$$
MNZ001>005-007-008-013>017-022>024-027-028-172000-
   Northwest Minnesota

CITY           SKY/WX    TMP DP  RH WIND       PRES   REMARKS
BEMIDJI        CLOUDY    64  59  84 N8        29.80S
HALLOCK        MOSUNNY   77  59  53 NW5       29.83S
ROSEAU         SUNNY     75  61  60 N7        29.82S
WARROAD        CLOUDY    72  63  73 E7        29.83S
THIEF RVR FALL MOSUNNY   75  57  53 N16       29.83S
CROOKSTON      SUNNY     75  59  57 N12       29.83S
FOSSTON        MOSUNNY   73  63  68 N14       29.83S
DETROIT LAKES  MOSUNNY   72  59  64 N13G20    29.83S
MOORHEAD       MOSUNNY   73  63  68 N7        29.84R
PARK RAPIDS    CLOUDY    68  60  75 N14       29.80S
MAHNOMEN       MOCLDY    70  60  70 N14       29.82S
$$
MNZ006-009>011-018-025>026-172000-
   North Central Minnesota

CITY           SKY/WX    TMP DP  RH WIND       PRES   REMARKS
BAUDETTE       CLOUDY    69  57  65 N10       29.81S
FLAG ISLAND    MOSUNNY   72  55  56 CALM      29.80F
INTL FALLS     CLOUDY    63  58  83 N13       29.78S
WASKISH        CLOUDY    66  61  82 N8        29.80F
BIG FORK       CLOUDY    63  59  88 N8        29.77S
LONGVILLE      CLOUDY    64  61  88 NW6       29.77R
GRAND RAPIDS   CLOUDY    63  60  90 NW17G23   29.77R
CRANE LAKE     LGT RAIN  61  61 100 N7        29.76S
ORR            DRIZZLE   61  57  88 NW3       29.73S
COOK           RAIN      61  61 100 NW6       29.74S
WALKER         CLOUDY    64  59  83 N10       29.79R
$$
MNZ012-019>021-037-172000-
   Northeast Minnesota

CITY           SKY/WX    TMP DP  RH WIND       PRES   REMARKS
DULUTH         LGT RAIN  61  61 100 N9        29.67R FOG
ELY            LGT RAIN  61  59  94 N5        29.70S
HIBBING        LGT RAIN  62  60  93 N10       29.72R
EVELETH        RAIN      62  59  87 N9        29.72R
DULUTH HARBOR  CLOUDY    63  61  94 N10       29.65R
TWO HARBORS    CLOUDY    66  61  82 N3        29.63R
GRAND MARAIS     N/A     65  60  84 N14G31    29.59F
G MARAIS ARPRT CLOUDY    57  54  88 N15G23    29.66R
$$
MNZ029>031-032-039>041-046>048-054>057-064-172000-
   West Central Minnesota

CITY           SKY/WX    TMP DP  RH WIND       PRES   REMARKS
FERGUS FALLS   MOSUNNY   72  63  73 N13       29.82S
WHEATON        MOSUNNY   73  61  64 NW10      29.86R
MORRIS         SUNNY     73  64  73 NW16      29.82S
ALEXANDRIA     PTSUNNY   70  61  73 N14       29.83R
ELBOW LAKE     FAIR      70  62  75 NW13      29.84R HAZE
WADENA         CLOUDY    66  59  77 N15       29.80S
GLENWOOD       SUNNY     70  63  78 NW15G21   29.82R
APPLETON       MOSUNNY   73  61  64 NW15      29.83S
BENSON         PTSUNNY   73  63  68 N14G23    29.83S
ORTONVILLE     SUNNY     72  63  73 MISG      29.85S
MADISON        SUNNY     72  72 100 NW15      29.85S
WILLMAR        CLOUDY    70  64  83 NW15      29.82S
$$
MNZ033>034-036-042>043-049>051-058-059-172000-
   Central Minnesota

CITY           SKY/WX    TMP DP  RH WIND       PRES   REMARKS
ST CLOUD       CLOUDY    69  63  81 NW15      29.74R
SAUK CENTRE    CLOUDY    65  62  91 NW15      29.80R
PAYNESVILLE    CLOUDY    70  65  82 NW13      29.79R
AITKIN         CLOUDY    64  59  82 NW8G18    29.73R
PINE RIVER     CLOUDY    63  57  82 NW13G18   29.81S
BRAINERD       CLOUDY    64  60  87 NW14G24   29.76R
STAPLES        CLOUDY    66  61  82 NW12      29.79R
LONG PRAIRIE   CLOUDY    66  61  82 NW9       29.80R
LITTLE FALLS   CLOUDY    66  59  77 NW12      29.77R
LITCHFIELD     PTSUNNY   72  66  83 NW12G18   29.78R
BUFFALO        CLOUDY    71  61  72 NW10G16   29.74R
MAPLE LAKE     CLOUDY    72  65  78 NW13G18   29.75S
HUTCHINSON     CLOUDY    72  66  82 W12G18    29.79R
$$
MNZ037-044-045-052-053-172000-
   East Central Minnesota

CITY           SKY/WX    TMP DP  RH WIND       PRES   REMARKS
PRINCETON      PTSUNNY   72  63  73 NW15G24   29.72R
MORA           CLOUDY    66  59  77 NW16G25   29.71S
RUSH CITY      HVY RAIN  66  59  79 NW10G18   29.69R
MOOSE LAKE     RAIN      63  59  88 N6        29.68R
HINCKLEY       CLOUDY    64  61  88 N9        29.69R
CLOQUET        LGT RAIN  63  59  88 NW12G18   29.69R
MCGREGOR       CLOUDY    64  61  88 NW16      29.72S
$$
MNZ071>073-080-081-089-090-097-098-172000-
   Southwest Minnesota

CITY           SKY/WX    TMP DP  RH WIND       PRES   REMARKS
MONTEVIDEO     PTSUNNY   72  72 100 N13       29.83S
GRANITE FALLS  CLOUDY    70  64  80 NW10G20   29.85R
CANBY          SUNNY     75  63  67 NW10G22   29.87S
MARSHALL       PTSUNNY   72  64  76 NW15G23   29.85R
REDWOOD FALLS  CLOUDY    69  61  75 NW15G22   29.82R
OLIVIA         CLOUDY    70  64  83 NW13G21   29.81R
PIPESTONE      MOSUNNY   75  61  60 N17       29.88S
WINDOM         SUNNY     70  63  78 NW15G22   29.84S
WORTHINGTON    MOSUNNY   74  63  68 NW17G26   29.86F
JACKSON        CLOUDY    70  61  73 NW13      29.85S
TRACY          CLOUDY    72  66  82 NW16      29.85S
SLAYTON        PTSUNNY   72  59  64 NW15G21   29.87F
$$
MNZ065>067-074>077-082>085-091>093-172000-
   South Central Minnesota

CITY           SKY/WX    TMP DP  RH WIND       PRES   REMARKS
MANKATO        CLOUDY    70  64  81 NW20G25   29.78R
NEW ULM        PTSUNNY   72  63  73 NW15G22   29.79S
ST JAMES       PTSUNNY   72  63  73 W14G23    29.82R
FAIRMONT       CLOUDY    69  62  78 W20       29.82S
GLENCOE        CLOUDY    74  67  80 NW16G22   29.75S
FARIBAULT      CLOUDY    70  64  83 W9G17     29.74R
OWATONNA       PTSUNNY   70  64  83 W15G22    29.74R
WASECA         CLOUDY    68  63  83 W17G25    29.77S
ALBERT LEA     CLOUDY    68  68 100 W14G22    29.77R
$$
MNZ078>079-086>088-094>096-172000-
   Southeast Minnesota

CITY           SKY/WX    TMP DP  RH WIND       PRES   REMARKS
ROCHESTER      CLOUDY    67  63  87 W22G30    29.72R
RED WING       CLOUDY    66  61  82 NW15G21   29.67R
STANTON        CLOUDY    71  62  75 NW20G30   29.70R
DODGE CENTER   LGT RAIN  66  64  94 NW17G26   29.73R
WINONA         CLOUDY    72  63  73 W13G23    29.65R
AUSTIN         CLOUDY    66  63  88 W21G28    29.74S FOG
PRESTON        CLOUDY    67  63  88 NW22G28   29.72R FOG
$$
ABBREVIATIONS USED IN REMARKS
   TC - TEMPERATURES IN CELSIUS
  WCI - WIND CHILL INDEX
   HX - HEAT INDEX
  VSB - VISIBILITY
$$




USA.gov is the U.S. government's official web portal to all federal, state and local government web resources and services.